15 daagse weersverwachting Terrassa (ES)

  • Overzicht
  • Per uur
  • 15 dagen
  • Extra
  • Vergelijk
  • Kaarten
  • Dagkaart
  • Meer »
  • Info
  • Statistieken
  • Directe link
    Temp 6h Neerslag Wind  
 08:10     19:05    Daglengte: 10:55 Vandaag
20:00
18°
 
2
 08:11     19:03    Daglengte: 10:52 Morgen
02:00
17°
 
1
08:00
17°
2.6 mm
2
warningclass
14:00
20°
10.7 mm
4
20:00
15°
5.3 mm
2
 08:12     19:02    Daglengte: 10:50 Maandag 21 Okt
02:00
12°
 
2
08:00
11°
 
2
14:00
16°
 
2
20:00
14°
 
2
 08:13     19:00    Daglengte: 10:47 Dinsdag 22 Okt
02:00
13°
2.0 mm
2
08:00
13°
16.5 mm
3
14:00
15°
50.0 mm
6
warningclass
Locatie info
Region: Cataluña
Latitude: 41.5609°N
Longitude: 2.0086°E
302 masl
Postcode: 08221
Temp/Neerslag /Baro Onweer/Dauwpunt
    Temp Baro 1h Neerslag Dauwpunt Wind UV Bewolking  
 08:10     19:05    Daglengte: 10:55 Vandaag
18:00
21°
1007.1 hPa   14.1°
4
Windvlaag: 4 km/h
17%
19:00
19°
1007.3 hPa   14.8°
3
Windvlaag: 3.1 km/h
9%
20:00
18°
1007.7 hPa   15.5°
2
Windvlaag: 2.6 km/h
20%
21:00
18°
1007.9 hPa
52%
16.1°
2
Windvlaag: 2 km/h
7%
22:00
17°
1008.0 hPa
62%
16.1°
2
Windvlaag: 1.8 km/h
13%
23:00
17°
1008.0 hPa
65%
15.6°
2
Windvlaag: 2 km/h
35%
 08:11     19:03    Daglengte: 10:52 Morgen
00:00
17°
1007.9 hPa
26%
15.5°
1
Windvlaag: 2 km/h
40%
01:00
17°
1007.6 hPa
37%
15.6°
1
Windvlaag: 1.6 km/h
42%
02:00
17°
1007.4 hPa
74%
15.9°
1
Windvlaag: 1.7 km/h
53%
03:00
17°
1007.0 hPa
28%
16.2°
2
Windvlaag: 1.4 km/h
74%
04:00
17°
1006.3 hPa 0.6 mm
78%
16.3°
2
Windvlaag: 1.9 km/h
84% warningclass
05:00
17°
1005.9 hPa
77%
16.9°
2
Windvlaag: 2.7 km/h
70%
06:00
17°
1005.7 hPa 0.8 mm
78%
16.7°
2
Windvlaag: 3.3 km/h
80% warningclass
07:00
17°
1005.7 hPa
80%
16.9°
2
Windvlaag: 3.4 km/h
78%
08:00
17°
1005.7 hPa 1.2 mm
82%
16.4°
2
Windvlaag: 2.7 km/h
76% warningclass
09:00
17°
1006.0 hPa 1.5 mm
82%
16.6°
2
Windvlaag: 3.1 km/h
62% warningclass
10:00
18°
1006.5 hPa 3.1 mm
82%
16.9°
2
Windvlaag: 3.2 km/h
72% warningclass
11:00
19°
1006.6 hPa 2.7 mm
82%
16.8°
2
Windvlaag: 4.1 km/h
73% warningclass
12:00
19°
1007.0 hPa 1.4 mm
82%
15.4°
3
Windvlaag: 4.4 km/h
54%
13:00
19°
1007.2 hPa 1.1 mm
76%
13.2°
4
Windvlaag: 4.4 km/h
50%
14:00
20°
1007.5 hPa 0.9 mm
79%
11.6°
4
Windvlaag: 4 km/h
70%
15:00
19°
1007.9 hPa 1.8 mm
77%
12.2°
4
Windvlaag: 3.8 km/h
68%
16:00
19°
1008.3 hPa 1.3 mm
71%
12.9°
3
Windvlaag: 3.8 km/h
74%
17:00
18°
1008.8 hPa 1.1 mm
28%
12.9°
3
Windvlaag: 0.8 km/h
75%
18:00
17°
1009.2 hPa 1.1 mm
20%
12.8°
4
Windvlaag: -1.3 km/h
54%
19:00
16°
1010.0 hPa
14%
11.6°
3
Windvlaag: -1.3 km/h
62%
20:00
15°
1010.8 hPa
14%
11.1°
2
Windvlaag: -1.2 km/h
59%
21:00
14°
1011.7 hPa
15%
10.4°
2
Windvlaag: -0.9 km/h
48%
22:00
13°
1012.4 hPa
16%
10.0°
2
Windvlaag: -0.6 km/h
24%
23:00
13°
1013.1 hPa
14%
10.1°
2
Windvlaag: -0.9 km/h
52%
 08:12     19:02    Daglengte: 10:50 Maandag 21 Okt
00:00
13°
1013.6 hPa
14%
10.4°
2
Windvlaag: -0.9 km/h
36%
01:00
12°
1013.9 hPa
14%
9.9°
2
Windvlaag: -0.8 km/h
32%
02:00
12°
1014.1 hPa
14%
9.7°
2
Windvlaag: -0.7 km/h
41%
03:00
11°
1014.6 hPa
19%
9.3°
2
Windvlaag: -0.9 km/h
35%
04:00
12°
1014.6 hPa
17%
9.0°
2
Windvlaag: -2 km/h
47%
05:00
11°
1015.0 hPa
72%
8.7°
3
Windvlaag: -2.1 km/h
64%
06:00
11°
1015.5 hPa
23%
8.4°
3
Windvlaag: -2.1 km/h
78%
07:00
11°
1015.8 hPa
14%
8.5°
3
Windvlaag: -2.3 km/h
84%
08:00
11°
1016.2 hPa
14%
8.3°
2
Windvlaag: -2.3 km/h
87%
09:00
12°
1016.9 hPa
17%
8.0°
2
Windvlaag: -2.1 km/h
77%
10:00
13°
1017.8 hPa
57%
8.7°
2
Windvlaag: -1.3 km/h
83%
11:00
14°
1018.4 hPa
85%
10.8°
2
Windvlaag: -1.1 km/h
92%
12:00
15°
1018.7 hPa
93%
9.9°
1
Windvlaag: 0.1 km/h
99%
13:00
16°
1018.9 hPa
94%
9.6°
1
Windvlaag: 0.3 km/h
100%
14:00
16°
1018.7 hPa
98%
10.3°
2
Windvlaag: 0.7 km/h
96%
15:00
16°
1018.4 hPa
92%
10.9°
2
Windvlaag: 0.8 km/h
100%
16:00
16°
1018.4 hPa
100%
11.0°
2
Windvlaag: 0.9 km/h
100%
17:00
16°
1018.3 hPa
100%
11.4°
2
Windvlaag: 0.5 km/h
98%
18:00
15°
1018.4 hPa
100%
11.9°
2
Windvlaag: 0.9 km/h
100%
19:00
14°
1018.7 hPa
100%
12.4°
2
Windvlaag: 0.6 km/h
99%
20:00
14°
1019.2 hPa
100%
12.5°
2
Windvlaag: 0.3 km/h
100%
21:00
14°
1019.6 hPa
100%
12.5°
2
Windvlaag: 0 km/h
99%
22:00
13°
1019.8 hPa 1.0 mm
100%
12.1°
2
Windvlaag: -0.1 km/h
98%
23:00
13°
1020.0 hPa 1.0 mm
100%
11.5°
2
Windvlaag: -0.3 km/h
97%
 08:13     19:00    Daglengte: 10:47 Dinsdag 22 Okt
00:00
13°
1019.9 hPa
99%
11.3°
2
Windvlaag: -0.5 km/h
100%
01:00
13°
1019.7 hPa
31%
11.2°
2
Windvlaag: -0.6 km/h
96%
02:00
13°
1019.3 hPa
81%
11.0°
2
Windvlaag: -0.5 km/h
97%
03:00
13°
1018.6 hPa
100%
10.9°
2
Windvlaag: -1 km/h
100%
04:00
13°
1017.8 hPa
100%
11.1°
2
Windvlaag: -1 km/h
100%
05:00
13°
1017.3 hPa 3.1 mm
100%
11.0°
2
Windvlaag: -0.5 km/h
100%
06:00
13°
1017.3 hPa 4.4 mm
100%
11.1°
3
Windvlaag: -0.4 km/h
100%
07:00
13°
1015.9 hPa 4.7 mm
100%
11.2°
3
Windvlaag: -0.4 km/h
100%
08:00
13°
1015.0 hPa 4.4 mm
100%
11.6°
3
Windvlaag: -0.8 km/h
100%
09:00
14°
1014.2 hPa 5.9 mm
100%
12.0°
4
Windvlaag: 14.2 km/h
100%
10:00
14°
1013.7 hPa 7.7 mm
100%
12.2°
5
Windvlaag: 12 km/h
100%
11:00
14°
1013.2 hPa 7.6 mm
100%
12.4°
5
Windvlaag: 11.6 km/h
100%
12:00
14°
1012.4 hPa 8.9 mm
100%
12.5°
5
Windvlaag: 12.1 km/h
100% warningclass
13:00
15°
1011.5 hPa 9.9 mm
100%
12.9°
6
Windvlaag: 16.3 km/h
100% warningclass
14:00
15°
1010.6 hPa 9.9 mm
100%
13.2°
6
Windvlaag: 2.4 km/h
97% warningclass
15:00
15°
1010.0 hPa 20.4 mm
100%
12.6°
6
Windvlaag: 16.8 km/h
89%
16:00
15°
1009.9 hPa 20.6 mm
100%
13.0°
6
Windvlaag: 13.2 km/h
98%
17:00
16°
1009.9 hPa 20.7 mm
100%
13.4°
6
Windvlaag: 14.3 km/h
99%
Temp/Neerslag /Baro Onweer/Dauwpunt
    Temp Baro Neerslag Dauwpunt Wind Bewolking  
 08:10     19:05    Daglengte: 10:55 Vandaag
20:00
18°
1007.7 hPa   15.5°
2
20%
23:00
17°
1008.0 hPa   15.6°
2
35%
 08:11     19:03    Daglengte: 10:52 Morgen
02:00
17°
1007.4 hPa   15.9°
1
53%
05:00
17°
1005.9 hPa 0.6 mm 16.9°
2
70% warningclass
08:00
17°
1005.7 hPa 2.0 mm 16.4°
2
76% warningclass
11:00
19°
1006.6 hPa 7.3 mm 16.8°
2
73% warningclass
14:00
20°
1007.5 hPa 3.4 mm 11.6°
4
70%
17:00
18°
1008.8 hPa 4.2 mm 12.9°
3
75%
20:00
15°
1010.8 hPa 1.1 mm 11.1°
2
59%
23:00
13°
1013.1 hPa   10.1°
2
52%
 08:12     19:02    Daglengte: 10:50 Maandag 21 Okt
02:00
12°
1014.1 hPa   9.7°
2
41%
05:00
11°
1015.0 hPa   8.7°
3
64%
08:00
11°
1016.2 hPa   8.3°
2
87%
11:00
14°
1018.4 hPa   10.8°
2
92%
14:00
16°
1018.7 hPa   10.3°
2
96%
17:00
16°
1018.3 hPa   11.4°
2
98%
20:00
14°
1019.2 hPa   12.5°
2
100%
23:00
13°
1020.0 hPa 2.0 mm 11.5°
2
97%
 08:13     19:00    Daglengte: 10:47 Dinsdag 22 Okt
02:00
13°
1019.3 hPa   11.0°
2
97%
05:00
13°
1017.3 hPa 3.1 mm 11.0°
2
100%
08:00
13°
1015.0 hPa 13.5 mm 11.6°
3
100%
11:00
14°
1013.2 hPa 21.2 mm 12.4°
5
100%
14:00
15°
1010.6 hPa 28.7 mm 13.2°
6
97% warningclass
17:00
16°
1009.9 hPa 61.7 mm 13.4°
6
99%
20:00
17°
1010.2 hPa 62.4 mm 14.6°
6
98%
23:00
17°
1008.4 hPa 43.7 mm 15.5°
6
91%
 08:14     18:59    Daglengte: 10:45 Woensdag 23 Okt
02:00
17°
1007.3 hPa 55.6 mm 16.1°
7
91%
05:00
17°
1006.4 hPa 57.7 mm 16.3°
4
91%
08:00
16°
1005.6 hPa 63.8 mm 16.5°
2
92%
11:00
17°
1005.9 hPa 78.7 mm 15.8°
3
91%
14:00
18°
1006.3 hPa 83.5 mm 14.4°
3
91%
17:00
16°
1006.3 hPa 84.9 mm 13.5°
2
91%
20:00
14°
1006.3 hPa 88.5 mm 12.5°
2
90%
23:00
13°
1007.0 hPa 93.3 mm 11.2°
2
54%
 08:15     18:57    Daglengte: 10:42 Donderdag 24 Okt
02:00
12°
1007.7 hPa 96.2 mm 9.9°
2
19%
05:00
11°
1008.3 hPa 98.6 mm 9.3°
2
11%
08:00
10°
Voelt als: 8.9°
1009.0 hPa 102.4 mm 8.9°
2
4%
11:00
14°
1010.0 hPa 106.5 mm 10.1°
2
19%
14:00
17°
1011.1 hPa 109.0 mm 10.6°
2
34%
17:00
15°
1011.9 hPa 110.7 mm 11.3°
2
42%
20:00
13°
1012.9 hPa 111.3 mm 11.5°
1
50%
23:00
12°
1014.1 hPa 111.6 mm 10.4°
2
42%
 08:17     18:56    Daglengte: 10:39 Vrijdag 25 Okt
02:00
11°
1015.2 hPa 111.7 mm 9.3°
3
34%
05:00
10°
1015.6 hPa 111.8 mm 8.7°
2
54%
08:00
Voelt als: 8.4°
1016.2 hPa 111.8 mm 8.1°
2
74%
11:00
14°
1016.7 hPa 111.8 mm 9.3°
2
47%
14:00
19°
1017.2 hPa 111.8 mm 9.2°
2
20%
17:00
18°
1017.5 hPa 111.8 mm 11.3°
1
56%
20:00
16°
1017.9 hPa 111.8 mm 12.6°
1
91%
23:00
15°
1018.0 hPa 111.8 mm 12.2°
2
90%
 08:18     18:55    Daglengte: 10:37 Zaterdag 26 Okt
02:00
14°
1018.0 hPa 111.8 mm 11.8°
3
88%
05:00
14°
1016.9 hPa 111.8 mm 11.6°
3
89%
08:00
14°
1016.0 hPa 111.8 mm 11.4°
4
90%
11:00
17°
1016.0 hPa 111.8 mm 11.8°
4
90%
14:00
20°
1016.0 hPa 111.8 mm 11.8°
5
90%
17:00
18°
1016.1 hPa   11.8°
4
67%
20:00
16°
1016.3 hPa 223.6 mm 11.5°
4
44%
 08:19     18:53    Daglengte: 10:34 Zondag 27 Okt
02:00
14°
1018.0 hPa 223.6 mm 11.9°
2
14%
07:00
12°
1017.9 hPa 223.8 mm 10.4°
1
32%
13:00
20°
1017.7 hPa 225.2 mm 13.4°
3
77%
19:00
16°
1017.9 hPa 225.6 mm 13.8°
1
23%
 08:20     18:52    Daglengte: 10:32 Maandag 28 Okt
01:00
12°
1018.0 hPa 225.7 mm 10.1°
1
7%
07:00
12°
1017.1 hPa 225.7 mm 10.0°
2
7%
13:00
20°
1016.7 hPa 225.7 mm 12.4°
4
74%
19:00
15°
1016.1 hPa 226.9 mm 13.6°
2
91%
 08:21     18:50    Daglengte: 10:29 Dinsdag 29 Okt
01:00
12°
1015.7 hPa 227.5 mm 10.6°
2
90%
07:00
13°
1013.4 hPa 227.6 mm 8.0°
2
0%
13:00
19°
1015.7 hPa   11.3°
1
20%
19:00
14°
1015.4 hPa   11.3°
1
31%
 08:23     18:49    Daglengte: 10:26 Woensdag 30 Okt
01:00
13°
1016.2 hPa   10.7°
1
33%
07:00
13°
1015.9 hPa 0.1 mm 9.9°
1
33%
13:00
18°
1016.1 hPa 0.4 mm 11.6°
1
28%
19:00
14°
1016.1 hPa 0.5 mm 11.3°
1
26%
 08:24     18:48    Daglengte: 10:24 Donderdag 31 Okt
01:00
13°
1017.5 hPa 0.4 mm 10.2°
1
29%
07:00
12°
1017.6 hPa 0.3 mm 9.3°
1
35%
13:00
17°
1018.1 hPa 0.1 mm 10.7°
1
23%
19:00
14°
1018.4 hPa 0.4 mm 10.7°
1
24%
 08:25     18:47    Daglengte: 10:22 Vrijdag 01 Nov
01:00
13°
1019.0 hPa 0.8 mm 9.6°
1
29%
07:00
12°
1018.7 hPa 0.5 mm 8.3°
1
24%
13:00
17°
1018.7 hPa 0.4 mm 10.5°
2
31%
19:00
14°
1018.4 hPa 0.5 mm 10.5°
2
35%
 08:26     18:45    Daglengte: 10:19 Zaterdag 02 Nov
01:00
13°
1018.9 hPa 0.5 mm 9.6°
1
33%
07:00
12°
1018.8 hPa 0.2 mm 8.3°
1
22%
13:00
17°
1018.6 hPa 0.2 mm 10.1°
1
20%
19:00
13°
1018.4 hPa 1.1 mm 10.2°
1
19%
 08:27     18:44    Daglengte: 10:17 Zondag 03 Nov
01:00
12°
1018.7 hPa 0.3 mm 9.5°
1
18%
07:00
12°
1017.8 hPa 0.2 mm 8.2°
1
26%
13:00
17°
1017.7 hPa 0.4 mm 10.0°
1
31%
  CAPE Lifted Index Hail Supercell Tornado SRH 3km CL BTM PRES CL TOP PRES Swiss DWD icon SMHI TS
 08:10     19:05    Daglengte: 10:55 Vandaag
18:00 0 J/kg 0.1 K 0 % 0 % 0 % 0 m²/s² 0 0 4.36 1
19:00 58 J/kg -0.7 K 0 % 0 % 0 % 0 m²/s² 0 0 3.14 3
20:00 379 J/kg -1.9 K 0 % 0 % 0 % 0 m²/s² 0 0 2.12 3
21:00 686 J/kg -2.9 K 0 % 0 % 0 % 0 m²/s² 0 0 1.24 2
22:00 891 J/kg -3.5 K 0 % 0 % 0 % 0 m²/s² 0 0 0.73 80
23:00 969 J/kg -3.9 K 0 % 0 % 0 % 0 m²/s² 0 0 -1.08 2
 08:11     19:03    Daglengte: 10:52 Morgen
00:00 1059 J/kg -4.3 K 0 % 0 % 0 % 0 m²/s² 0 0 -0.76 2
01:00 1165 J/kg -4.6 K 0 % 0 % 0 % 0 m²/s² 0 0 -0.79 2
02:00 1354 J/kg -4.9 K 0 % 0 % 0 % 0 m²/s² 0 0 -1.09 2
03:00 1616 J/kg -5.6 K 0 % 0 % 0 % 0 m²/s² 0 0 -2.69 3
04:00 1797 J/kg -6.1 K 0 % 0 % 0 % 0 m²/s² 0 0 -3.37 2
05:00 1707 J/kg -5.7 K 0 % 0 % 0 % 0 m²/s² 0 0 -2.73 45
06:00 1772 J/kg -5.9 K 0 % 0 % 0 % 0 m²/s² 0 0 -2.57 3
07:00 1717 J/kg -6.0 K 0 % 0 % 0 % 0 m²/s² 0 0 -3.18 80
08:00 906 J/kg -3.5 K 0 % 0 % 0 % 0 m²/s² 0 0 -1.91 95
09:00 388 J/kg -2.0 K 0 % 0 % 0 % 0 m²/s² 0 0 -0.86 95
10:00 60 J/kg -0.3 K 0 % 0 % 0 % 0 m²/s² 0 0 0.3 95
11:00 4 J/kg 0.7 K 0 % 0 % 0 % 0 m²/s² 0 0 1 95
12:00 36 J/kg 0.6 K 0 % 0 % 0 % 0 m²/s² 0 0 0.93 80
13:00 6 J/kg 0.7 K 0 % 0 % 0 % 0 m²/s² 0 0 0.97 3
14:00 0 J/kg 2.4 K 0 % 0 % 0 % 0 m²/s² 0 0 2.64 3
15:00 0 J/kg 2.6 K 0 % 0 % 0 % 0 m²/s² 0 0 2.84 3
16:00 0 J/kg 3.2 K 0 % 0 % 0 % 0 m²/s² 0 0 3.53 3
17:00 0 J/kg 4.2 K 0 % 0 % 0 % 0 m²/s² 0 0 5.43 3
18:00 0 J/kg 4.0 K 0 % 0 % 0 % 0 m²/s² 0 0 6.1 3
19:00 5 J/kg 4.8 K 0 % 0 % 0 % 0 m²/s² 0 0 7.95 3
20:00 27 J/kg 4.6 K 0 % 0 % 0 % 0 m²/s² 0 0 8.89 3
21:00 0 J/kg 6.1 K 0 % 0 % 0 % 0 m²/s² 0 0 11.47 3
22:00 0 J/kg 5.6 K 0 % 0 % 0 % 0 m²/s² 0 0 10.67 3
23:00 0 J/kg 5.1 K 0 % 0 % 0 % 0 m²/s² 0 0 10.62 3
 08:12     19:02    Daglengte: 10:50 Maandag 21 Okt
00:00 0 J/kg 4.9 K 0 % 0 % 0 % 0 m²/s² 0 0 10.57 3
01:00 0 J/kg 5.4 K 0 % 0 % 0 % 0 m²/s² 0 0 11.37 3
02:00 0 J/kg 5.7 K 0 % 0 % 0 % 0 m²/s² 0 0 11.49 3
03:00 0 J/kg 6.1 K 0 % 0 % 0 % 0 m²/s² 0 0 11.41 3
04:00 0 J/kg 7.2 K 0 % 0 % 0 % 0 m²/s² 0 0 13.17 3
05:00 0 J/kg 6.5 K 0 % 0 % 0 % 0 m²/s² 0 0 11.42 3
06:00 0 J/kg 6.4 K 0 % 0 % 0 % 0 m²/s² 0 0 11.71 3
07:00 0 J/kg 6.1 K 0 % 0 % 0 % 0 m²/s² 0 0 10.63 3
08:00 0 J/kg 6.0 K 0 % 0 % 0 % 0 m²/s² 0 0 11.31 3
09:00 0 J/kg 5.9 K 0 % 0 % 0 % 0 m²/s² 0 0 10.79 2
10:00 0 J/kg 5.3 K 0 % 0 % 0 % 0 m²/s² 0 0 10.31 3
11:00 0 J/kg 5.6 K 0 % 0 % 0 % 0 m²/s² 0 0 10.37 3
12:00 0 J/kg 5.3 K 0 % 0 % 0 % 0 m²/s² 0 0 9.83 3
13:00 0 J/kg 5.5 K 0 % 0 % 0 % 0 m²/s² 0 0 10.15 3
14:00 0 J/kg 5.5 K 0 % 0 % 0 % 0 m²/s² 0 0 10.03 3
15:00 0 J/kg 5.5 K 0 % 0 % 0 % 0 m²/s² 0 0 9.4 3
16:00 0 J/kg 5.0 K 0 % 0 % 0 % 0 m²/s² 0 0 7.76 61
17:00 1 J/kg 3.9 K 0 % 0 % 0 % 0 m²/s² 0 0 5.97 61
18:00 18 J/kg 3.2 K 0 % 0 % 0 % 0 m²/s² 0 0 3.92 61
19:00 61 J/kg 2.1 K 0 % 0 % 0 % 0 m²/s² 0 0 2.43 61
20:00 79 J/kg 1.8 K 0 % 0 % 0 % 0 m²/s² 0 0 1.98 61
21:00 75 J/kg 1.9 K 0 % 0 % 0 % 0 m²/s² 0 0 2.32 61
22:00 31 J/kg 2.1 K 0 % 0 % 0 % 0 m²/s² 0 0 3.48 61
23:00 0 J/kg 3.3 K 0 % 0 % 0 % 0 m²/s² 0 0 5.25 61
 08:13     19:00    Daglengte: 10:47 Dinsdag 22 Okt
00:00 0 J/kg 4.4 K 0 % 0 % 0 % 0 m²/s² 0 0 6.23 3
01:00 0 J/kg 5.1 K 0 % 0 % 0 % 0 m²/s² 0 0 7.32 3
02:00 0 J/kg 5.0 K 0 % 0 % 0 % 0 m²/s² 0 0 7.58 3
03:00 0 J/kg 5.6 K 0 % 0 % 0 % 0 m²/s² 0 0 7.19 80
04:00 0 J/kg 8.1 K 0 % 0 % 0 % 0 m²/s² 0 0 8.73 61
05:00 0 J/kg 7.2 K 0 % 0 % 0 % 0 m²/s² 0 0 7.77 63
06:00 0 J/kg 6.1 K 0 % 0 % 0 % 0 m²/s² 0 0 6.4 65
07:00 0 J/kg 6.4 K 0 % 0 % 0 % 0 m²/s² 0 0 6.64 63
08:00 0 J/kg 6.2 K 0 % 0 % 0 % 0 m²/s² 0 0 6.23 63
09:00 0 J/kg 5.5 K 0 % 0 % 0 % 0 m²/s² 0 0 5.62 63
10:00 0 J/kg 5.7 K 0 % 0 % 0 % 0 m²/s² 0 0 5.73 63
11:00 0 J/kg 4.4 K 0 % 0 % 0 % 0 m²/s² 0 0 4.4 61
12:00 0 J/kg 4.1 K 0 % 0 % 0 % 0 m²/s² 0 0 4.4 95
13:00 0 J/kg 1.8 K 0 % 0 % 0 % 0 m²/s² 0 0 2.16 95
14:00 0 J/kg -0.5 K 0 % 0 % 0 % 0 m²/s² 0 0 0.76 95
15:00 0 J/kg -2.4 K 0 % 0 % 0 % 0 m²/s² 0 0 -0.57
16:00 0 J/kg -4.4 K 0 % 0 % 0 % 0 m²/s² 0 0 -2.87
17:00 0 J/kg -3.3 K 0 % 0 % 0 % 0 m²/s² 0 0 -1.71
Temp Baro Wind Neerslag
  EWN Forecast EWN WRFDA DWD ICON FMI HIRLAM MET Norway GFS
 08:10     19:05    Daglengte: 10:55 Vandaag
20:00 17.8° 1007.7 hPa 2.0 m/s 0.0 mm 19.7° 1006.6 hPa 4.7 m/s 0.1 mm 18.5° 1007.9 hPa 1.6 m/s -2.0 mm 18.6° 1007.7 hPa 2.4 m/s 0.0 mm 17.0° 1007.6 hPa 1.9 m/s 0.0 mm 20.7° 1006.5 hPa 3.7 m/s
23:00 16.7° 1008.0 hPa 1.7 m/s 0.0 mm 19.4° 1006.6 hPa 3.6 m/s 0.2 mm 17.0° 1008.0 hPa 0.7 m/s 0.3 mm 17.1° 1008.1 hPa 1.9 m/s 0.0 mm 16.1° 1007.8 hPa 1.6 m/s 0.0 mm 19.6° 1007.1 hPa 2.8 m/s
 08:11     19:03    Daglengte: 10:52 Morgen
02:00 16.6° 1007.4 hPa 1.2 m/s 0.0 mm 19.0° 1005.7 hPa 3.0 m/s 0.9 mm 16.7° 1007.6 hPa 0.4 m/s 0.0 mm 16.9° 1007.6 hPa 0.6 m/s 0.0 mm 16.4° 1006.9 hPa 1.2 m/s 0.3 mm 18.7° 1006.6 hPa 1.5 m/s
05:00 17.1° 1005.9 hPa 2.5 m/s 0.6 mm 19.1° 1004.0 hPa 5.1 m/s 5.3 mm 16.1° 1006.2 hPa 1.3 m/s 0.0 mm 17.3° 1006.0 hPa 1.5 m/s 0.0 mm 17.1° 1005.6 hPa 2.5 m/s 1.1 mm 18.4° 1004.7 hPa 3.3 m/s
08:00 16.6° 1005.7 hPa 2.1 m/s 2.0 mm 19.3° 1004.4 hPa 5.1 m/s 10.7 mm 15.8° 1005.9 hPa 1.0 m/s 1.4 mm 17.5° 1005.6 hPa 3.2 m/s 0.0 mm 16.4° 1005.7 hPa 0.7 m/s 0.9 mm 18.4° 1004.9 hPa 4.0 m/s
11:00 19.0° 1006.6 hPa 2.3 m/s 7.3 mm 20.3° 1006.4 hPa 5.5 m/s 11.6 mm 17.1° 1006.3 hPa 1.0 m/s 7.6 mm 19.2° 1006.6 hPa 4.1 m/s 0.0 mm 19.8° 1006.7 hPa 1.3 m/s 0.0 mm 20.7° 1006.7 hPa 3.5 m/s
14:00 19.9° 1007.5 hPa 4.4 m/s 3.4 mm 21.5° 1006.5 hPa 5.8 m/s 11.9 mm 19.8° 1007.4 hPa 3.2 m/s 2.0 mm 18.2° 1008.1 hPa 5.3 m/s 0.0 mm 21.7° 1007.7 hPa 4.3 m/s 0.8 mm 20.5° 1007.4 hPa 5.2 m/s
17:00 18.2° 1008.8 hPa 3.4 m/s 4.2 mm 21.0° 1007.2 hPa 6.6 m/s 11.9 mm 18.6° 1008.1 hPa 3.3 m/s 0.3 mm 15.7° 1009.9 hPa 2.7 m/s 0.0 mm 18.6° 1009.0 hPa 3.7 m/s 4.4 mm 17.6° 1008.7 hPa 1.0 m/s
20:00 15.1° 1010.8 hPa 2.4 m/s 1.1 mm 18.5° 1010.4 hPa 4.9 m/s 11.9 mm 15.9° 1011.1 hPa 2.2 m/s 0.0 mm 14.5° 1011.5 hPa 2.7 m/s 0.0 mm 15.2° 1010.4 hPa 1.7 m/s 0.8 mm 17.1° 1011.1 hPa 1.3 m/s
23:00 13.0° 1013.1 hPa 1.7 m/s 0.0 mm 16.2° 1012.0 hPa 5.0 m/s 11.9 mm 15.1° 1013.1 hPa 0.4 m/s 0.0 mm 12.2° 1014.4 hPa 2.4 m/s 0.0 mm 12.8° 1012.9 hPa 0.7 m/s 0.0 mm 16.8° 1014.1 hPa 1.0 m/s
 08:12     19:02    Daglengte: 10:50 Maandag 21 Okt
02:00 11.7° 1014.1 hPa 2.0 m/s 0.0 mm 15.1° 1013.6 hPa 3.5 m/s 11.9 mm 13.7° 1013.9 hPa 1.4 m/s 0.0 mm 10.5° 1015.9 hPa 2.4 m/s 0.0 mm 11.3° 1013.8 hPa 1.5 m/s 0.0 mm 16.3° 1014.6 hPa 0.5 m/s
05:00 11.4° 1015.0 hPa 2.7 m/s 0.0 mm 14.9° 1014.2 hPa 3.7 m/s 11.9 mm 13.0° 1015.3 hPa 1.5 m/s 0.0 mm 10.5° 1016.2 hPa 3.0 m/s 0.0 mm 10.8° 1014.3 hPa 2.3 m/s 0.0 mm 15.0° 1015.2 hPa 1.9 m/s
08:00 11.4° 1016.2 hPa 2.3 m/s 0.0 mm 13.9° 1014.7 hPa 1.7 m/s 11.9 mm 13.0° 1016.2 hPa 1.6 m/s 0.0 mm 11.0° 1017.5 hPa 3.4 m/s 0.0 mm 10.3° 1016.1 hPa 2.1 m/s 0.0 mm 14.2° 1016.3 hPa 1.4 m/s
11:00 14.3° 1018.4 hPa 1.8 m/s 0.0 mm 15.5° 1016.8 hPa 1.5 m/s 11.9 mm 15.6° 1018.5 hPa 2.8 m/s 0.1 mm 14.1° 1018.5 hPa 1.7 m/s 0.0 mm 14.6° 1018.0 hPa 1.0 m/s
14:00 16.0° 1018.7 hPa 1.7 m/s 0.0 mm 17.6° 1017.3 hPa 1.6 m/s 11.9 mm 15.5° 1019.0 hPa 2.2 m/s 0.4 mm 16.2° 1018.8 hPa 1.6 m/s 0.0 mm 14.7° 1018.6 hPa 1.5 m/s
17:00 15.9° 1018.3 hPa 2.2 m/s 0.0 mm 17.2° 1017.0 hPa 3.3 m/s 11.9 mm 15.2° 1018.7 hPa 1.7 m/s 0.7 mm 16.2° 1018.4 hPa 2.2 m/s 0.0 mm 14.3° 1018.1 hPa 2.8 m/s
20:00 14.0° 1019.2 hPa 1.8 m/s 0.0 mm 15.5° 1018.0 hPa 4.7 m/s 11.9 mm 14.2° 1019.8 hPa 1.3 m/s 2.9 mm 14.0° 1019.2 hPa 1.6 m/s 0.0 mm 13.9° 1019.1 hPa 2.4 m/s
23:00 12.9° 1020.0 hPa 1.7 m/s 2.0 mm 14.7° 1017.8 hPa 2.2 m/s 12.0 mm 13.8° 1020.2 hPa 1.6 m/s 0.7 mm 12.7° 1020.4 hPa 1.6 m/s 0.0 mm 13.6° 1019.6 hPa 1.0 m/s
 08:13     19:00    Daglengte: 10:47 Dinsdag 22 Okt
02:00 13.0° 1019.3 hPa 1.9 m/s 0.0 mm 14.9° 1016.5 hPa 3.1 m/s 12.0 mm 13.8° 1018.8 hPa 1.5 m/s 0.1 mm 12.7° 1020.2 hPa 1.7 m/s 0.0 mm 13.3° 1018.7 hPa 2.4 m/s
05:00 12.9° 1017.3 hPa 2.3 m/s 3.1 mm 13.7° 1015.3 hPa 7.4 m/s 12.6 mm 13.1° 1017.3 hPa 2.0 m/s 9.0 mm 12.6° 1018.5 hPa 1.5 m/s 0.4 mm 12.1° 1016.5 hPa 2.7 m/s
08:00 13.3° 1015.0 hPa 2.9 m/s 13.5 mm 13.3° 1012.5 hPa 8.5 m/s 22.8 mm 14.4° 1013.7 hPa 4.1 m/s 22.4 mm 13.0° 1016.5 hPa 2.0 m/s 3.0 mm 11.7° 1014.4 hPa 2.5 m/s
11:00 14.2° 1013.2 hPa 5.0 m/s 21.2 mm 14.4° 1012.1 hPa 5.8 m/s 46.7 mm 16.4° 1013.1 hPa 8.0 m/s 8.5 mm 13.4° 1013.5 hPa 3.5 m/s 11.2° 1013.3 hPa 3.1 m/s
14:00 15.3° 1010.6 hPa 5.6 m/s 28.7 mm 16.8° 1008.3 hPa 9.4 m/s 61.1 mm 16.9° 1012.7 hPa 5.6 m/s 12.6 mm 13.8° 1010.5 hPa 4.9 m/s 14.1° 1012.5 hPa 4.3 m/s
17:00 15.5° 1009.9 hPa 5.8 m/s 61.7 mm 18.1° 1006.9 hPa 8.5 m/s 61.7 mm 15.1° 1010.5 hPa 5.3 m/s 14.6° 1010.8 hPa 2.7 m/s
20:00 16.5° 1010.2 hPa 6.0 m/s 62.4 mm 17.3° 1008.7 hPa 7.2 m/s 62.4 mm 16.4° 1010.4 hPa 5.8 m/s 14.1° 1010.7 hPa 1.6 m/s
23:00 16.8° 1008.4 hPa 6.4 m/s 43.7 mm 17.0° 1008.3 hPa 6.9 m/s 14.8° 1010.3 hPa 1.7 m/s 43.7 mm
 08:14     18:59    Daglengte: 10:45 Woensdag 23 Okt
02:00 17.0° 1007.3 hPa 7.0 m/s 55.6 mm 17.3° 1007.2 hPa 7.4 m/s 14.2° 1008.0 hPa 2.6 m/s 55.6 mm
05:00 16.8° 1006.4 hPa 4.3 m/s 57.7 mm 16.9° 1006.5 hPa 4.6 m/s 15.3° 1005.0 hPa 1.0 m/s 57.7 mm
08:00 16.4° 1005.6 hPa 1.9 m/s 63.8 mm 16.5° 1005.9 hPa 1.8 m/s 15.2° 1001.7 hPa 2.6 m/s 63.8 mm
11:00 17.1° 1005.9 hPa 2.5 m/s 78.7 mm 17.1° 1006.5 hPa 2.0 m/s 17.3° 998.8 hPa 8.0 m/s 78.7 mm
14:00 17.6° 1006.3 hPa 2.7 m/s 83.5 mm 17.7° 1007.1 hPa 2.3 m/s 16.8° 997.7 hPa 7.5 m/s 83.5 mm
17:00 16.0° 1006.3 hPa 2.1 m/s 84.9 mm 16.1° 1007.0 hPa 1.8 m/s 15.4° 998.1 hPa 4.8 m/s 84.9 mm
20:00 14.4° 1006.3 hPa 1.7 m/s 88.5 mm 14.4° 1006.9 hPa 1.4 m/s 14.6° 999.3 hPa 5.5 m/s 88.5 mm
23:00 13.0° 1007.0 hPa 1.6 m/s 93.3 mm 12.9° 1007.5 hPa 1.4 m/s 14.2° 1001.5 hPa 4.4 m/s 93.3 mm
 08:15     18:57    Daglengte: 10:42 Donderdag 24 Okt
02:00 11.7° 1007.7 hPa 1.8 m/s 96.2 mm 11.4° 1008.2 hPa 1.3 m/s 15.4° 1002.1 hPa 6.8 m/s 96.2 mm
05:00 10.8° 1008.3 hPa 2.0 m/s 98.6 mm 10.4° 1009.0 hPa 1.6 m/s 14.7° 1001.7 hPa 7.5 m/s 98.6 mm
08:00 9.9° 1009.0 hPa 2.3 m/s 102.4 mm 9.5° 1009.7 hPa 1.8 m/s 14.7° 1001.8 hPa 8.0 m/s 102.4 mm
11:00 13.6° 1010.0 hPa 2.0 m/s 106.5 mm 13.5° 1010.7 hPa 1.5 m/s 14.4° 1002.9 hPa 7.0 m/s 106.5 mm
14:00 17.4° 1011.1 hPa 1.7 m/s 109.0 mm 17.5° 1011.7 hPa 1.2 m/s 16.1° 1004.1 hPa 7.2 m/s 109.0 mm
17:00 15.5° 1011.9 hPa 1.6 m/s 110.7 mm 15.4° 1012.5 hPa 1.1 m/s 16.6° 1004.7 hPa 6.0 m/s 110.7 mm
20:00 13.4° 1012.9 hPa 1.4 m/s 111.3 mm 13.3° 1013.4 hPa 1.1 m/s 15.1° 1007.4 hPa 4.4 m/s 111.3 mm
23:00 12.0° 1014.1 hPa 2.1 m/s 111.6 mm 11.8° 1014.5 hPa 1.9 m/s 15.3° 1010.2 hPa 4.6 m/s 111.6 mm
 08:17     18:56    Daglengte: 10:39 Vrijdag 25 Okt
02:00 10.6° 1015.2 hPa 2.8 m/s 111.7 mm 10.2° 1015.5 hPa 2.7 m/s 15.4° 1011.3 hPa 3.9 m/s 111.7 mm
05:00 10.1° 1015.6 hPa 2.4 m/s 111.8 mm 9.6° 1016.0 hPa 2.5 m/s 15.0° 1012.1 hPa 1.9 m/s 111.8 mm
08:00 9.5° 1016.2 hPa 2.3 m/s 111.8 mm 9.1° 1016.4 hPa 2.3 m/s 13.7° 1013.9 hPa 2.0 m/s 111.8 mm
11:00 14.2° 1016.7 hPa 2.1 m/s 111.8 mm 14.0° 1016.9 hPa 2.1 m/s 15.9° 1014.6 hPa 2.0 m/s 111.8 mm
14:00 19.0° 1017.2 hPa 1.9 m/s 111.8 mm 18.9° 1017.4 hPa 1.9 m/s 19.6° 1014.6 hPa 1.6 m/s 111.8 mm
17:00 17.6° 1017.5 hPa 1.3 m/s 111.8 mm 17.4° 1017.8 hPa 1.2 m/s 20.6° 1013.5 hPa 2.3 m/s 111.8 mm
20:00 16.0° 1017.9 hPa 0.7 m/s 111.8 mm 15.8° 1018.3 hPa 0.6 m/s 17.8° 1014.0 hPa 1.2 m/s 111.8 mm
23:00 14.7° 1018.0 hPa 1.7 m/s 111.8 mm 14.6° 1018.3 hPa 1.7 m/s 16.1° 1014.6 hPa 1.3 m/s 111.8 mm
 08:18     18:55    Daglengte: 10:37 Zaterdag 26 Okt
02:00 13.5° 1018.0 hPa 2.7 m/s 111.8 mm 13.4° 1018.3 hPa 2.8 m/s 15.0° 1014.2 hPa 1.4 m/s 111.8 mm
05:00 13.7° 1016.9 hPa 3.2 m/s 111.8 mm 13.7° 1017.2 hPa 3.3 m/s 14.0° 1013.2 hPa 1.6 m/s 111.8 mm
08:00 14.0° 1016.0 hPa 3.7 m/s 111.8 mm 14.0° 1016.2 hPa 3.9 m/s 13.4° 1013.3 hPa 1.4 m/s 111.8 mm
11:00 16.8° 1016.0 hPa 4.2 m/s 111.8 mm 16.9° 1016.2 hPa 4.5 m/s 16.5° 1013.2 hPa 0.9 m/s 111.8 mm
14:00 19.7° 1016.0 hPa 4.9 m/s 111.8 mm 19.7° 1016.3 hPa 5.2 m/s 19.4° 1012.5 hPa 2.2 m/s 111.8 mm
17:00 18.1° 1016.1 hPa 4.4 m/s 111.8 mm 17.9° 1016.5 hPa 4.5 m/s 19.5° 1010.9 hPa 2.8 m/s 111.8 mm
20:00 16.2° 1016.3 hPa 3.6 m/s 111.8 mm 16.2° 1016.8 hPa 3.8 m/s 16.8° 1011.2 hPa 2.0 m/s 111.8 mm
 08:19     18:53    Daglengte: 10:34 Zondag 27 Okt
02:00 13.5° 1018.0 hPa 1.6 m/s 111.8 mm 13.4° 1018.6 hPa 1.6 m/s 15.1° 1011.5 hPa 1.2 m/s 111.8 mm
07:00 12.4° 1017.9 hPa 1.2 m/s 112.0 mm 12.2° 1018.5 hPa 1.2 m/s 15.1° 1011.3 hPa 1.6 m/s 112.0 mm
13:00 19.7° 1017.7 hPa 3.1 m/s 112.8 mm 19.9° 1018.2 hPa 3.2 m/s 16.9° 1012.1 hPa 1.7 m/s 112.8 mm
19:00 15.5° 1017.9 hPa 1.2 m/s 112.8 mm 15.4° 1018.4 hPa 1.2 m/s 16.6° 1012.1 hPa 1.5 m/s 112.8 mm
 08:20     18:52    Daglengte: 10:32 Maandag 28 Okt
01:00 12.4° 1018.0 hPa 1.3 m/s 112.8 mm 12.2° 1018.5 hPa 1.3 m/s 14.8° 1012.7 hPa 1.5 m/s 112.8 mm
07:00 12.1° 1017.1 hPa 1.5 m/s 112.8 mm 12.0° 1017.5 hPa 1.5 m/s 13.7° 1012.3 hPa 1.9 m/s 112.8 mm
13:00 19.5° 1016.7 hPa 3.7 m/s 112.9 mm 19.7° 1017.1 hPa 3.9 m/s 17.5° 1012.8 hPa 1.3 m/s 112.9 mm
19:00 14.6° 1016.1 hPa 1.6 m/s 113.7 mm 14.5° 1016.4 hPa 1.7 m/s 15.9° 1012.9 hPa 0.3 m/s 113.7 mm
 08:21     18:50    Daglengte: 10:29 Dinsdag 29 Okt
01:00 12.0° 1015.7 hPa 1.8 m/s 113.8 mm 11.8° 1015.9 hPa 1.8 m/s 14.1° 1013.7 hPa 1.3 m/s 113.8 mm
07:00 13.1° 1013.4 hPa 1.8 m/s 113.8 mm 13.1° 1013.4 hPa 1.8 m/s 113.8 mm
13:00 18.6° 1015.7 hPa 1.0 m/s 0.0 mm
19:00 14.5° 1015.4 hPa 1.0 m/s 0.0 mm
 08:23     18:49    Daglengte: 10:26 Woensdag 30 Okt
01:00 13.3° 1016.2 hPa 0.7 m/s 0.0 mm
07:00 12.9° 1015.9 hPa 1.3 m/s 0.1 mm
13:00 18.2° 1016.1 hPa 1.3 m/s 0.4 mm
19:00 14.3° 1016.1 hPa 1.0 m/s 0.5 mm
 08:24     18:48    Daglengte: 10:24 Donderdag 31 Okt
01:00 13.0° 1017.5 hPa 1.0 m/s 0.4 mm
07:00 12.3° 1017.6 hPa 1.2 m/s 0.3 mm
13:00 17.5° 1018.1 hPa 1.0 m/s 0.1 mm
19:00 13.9° 1018.4 hPa 1.2 m/s 0.4 mm
 08:25     18:47    Daglengte: 10:22 Vrijdag 01 Nov
01:00 12.6° 1019.0 hPa 0.8 m/s 0.8 mm
07:00 11.6° 1018.7 hPa 1.1 m/s 0.5 mm
13:00 17.0° 1018.7 hPa 1.5 m/s 0.4 mm
19:00 13.5° 1018.4 hPa 1.6 m/s 0.5 mm
 08:26     18:45    Daglengte: 10:19 Zaterdag 02 Nov
01:00 12.5° 1018.9 hPa 1.0 m/s 0.5 mm
07:00 11.6° 1018.8 hPa 1.3 m/s 0.2 mm
13:00 17.1° 1018.6 hPa 1.3 m/s 0.2 mm
19:00 13.3° 1018.4 hPa 1.4 m/s 1.1 mm
 08:27     18:44    Daglengte: 10:17 Zondag 03 Nov
01:00 12.4° 1018.7 hPa 0.9 m/s 0.3 mm
07:00 11.7° 1017.8 hPa 1.3 m/s 0.2 mm
13:00 17.3° 1017.7 hPa 1.5 m/s 0.4 mm
FMI Hirlam - 7.5 km EWN WRFDA - 12 km DWD ICON - 7 km GFS - 25 km Basiskaart






























































Updatetijd (Europe/Amsterdam) Resolutie Lengte Stap
FMI Hirlam 14:00, 20:00, 02:00, 08:00 7.5 km 49h 1h
EWN WRFDA 15:30, 21:30, 03:30, 09:30 12 km 73h 1h
DWD ICON 14:30, 20:30, 02:30, 08:30 7 km 75h 1h
GFS 15:30, 21:30, 03:30, 09:30 25 km 237h 3h
30+ mm
25-30 mm
20-25 mm
15-20 mm
10-15 mm
6-10 mm
4-6 mm
2-4 mm
1-2 mm
0.5-1 mm
0.2-0.5 mm
0.1-0.2 mm
30+ mm
25-30 mm
20-25 mm
15-20 mm
10-15 mm
6-10 mm
4-6 mm
2-4 mm
1-2 mm
0.5-1 mm
0.2-0.5 mm
0.1-0.2 mm
Sneeuwval
Natte sneeuw
Hagel
Vorst
30+ mm
25-30 mm
20-25 mm
15-20 mm
10-15 mm
6-10 mm
4-6 mm
2-4 mm
1-2 mm
0.5-1 mm
0.2-0.5 mm
0.1-0.2 mm
Sneeuwval
Natte sneeuw
Hagel
Vorst
Onweer
50 mm
40 mm
30 mm
26 mm
22 mm
18 mm
14 mm
10 mm
9 mm
8 mm
7 mm
6 mm
5 mm
4.5 mm
4 mm
3.5 mm
3 mm
2.5 mm
2 mm
1.5 mm
1 mm
0.8 mm
0.6 mm
0.4 mm
0.2 mm
0.05 mm
35°
30°
25°
20°
15°
10°
-5°
-10°
-15°
-20°
-25°
-30°
-35°
120> km/h
105 km/h
90 km/h
75 km/h
60 km/h
50 km/h
40 km/h
30 km/h
20 km/h
10 km/h
0 km/h
2600 J/kg
2400 J/kg
2200 J/kg
2000 J/kg
1800 J/kg
1600 J/kg
1400 J/kg
1200 J/kg
1000 J/kg
800 J/kg
600 J/kg
400 J/kg
200 J/kg
70 dBZ
65 dBZ
60 dBZ
55 dBZ
50 dBZ
45 dBZ
40 dBZ
35 dBZ
30 dBZ
25 dBZ
20 dBZ
15 dBZ
10 dBZ
5 dBZ
-1 K
-2 K
-3 K
-4 K
-5 K
-6 K
-7 K
-8 K
-9 K
950 m²/s²
900 m²/s²
850 m²/s²
800 m²/s²
750 m²/s²
700 m²/s²
650 m²/s²
600 m²/s²
550 m²/s²
500 m²/s²
450 m²/s²
400 m²/s²
350 m²/s²
300 m²/s²
250 m²/s²
200 m²/s²
150 m²/s²
100 m²/s²
46 m/s
44 m/s
42 m/s
40 m/s
38 m/s
36 m/s
34 m/s
32 m/s
30 m/s
28 m/s
26 m/s
24 m/s
22 m/s
20 m/s
16 m/s
12 m/s
8 m/s
4 m/s
30 m/s
28 m/s
26 m/s
24 m/s
22 m/s
20 m/s
18 m/s
16 m/s
14 m/s
12 m/s
10 m/s
8 m/s
6 m/s
4 m/s
2 m/s
3.0
2.8
2.6
2.4
2.2
2.0
1.8
1.6
1.4
1.2
1.0
0.8
0.6
0.4
0.2
15
14
13
12
11
10
9
8
7
6
5
4
3
2
1
90%
80%
70%
60%
50%
40%
30%
20%
10%
42
40
38
36
34
32
30
28
26
24
22
20
18
16
14
12
90+ cm
80-90 cm
70-80 cm
60-70 cm
50-60 cm
40-50 cm
30-40 cm
20-30 cm
10-20 cm
1-10 cm
Sneeuwval
Natte sneeuw
Regen
>120 mm
115 mm
110 mm
105 mm
100 mm
95 mm
90 mm
85 mm
80 mm
75 mm
70 mm
65 mm
60 mm
55 mm
50 mm
45 mm
45 mm
40 mm
35 mm
30 mm
25 mm
20 mm
15 mm
10 mm
5 mm
0.1 mm
960 hPa
880 hPa
800 hPa
720 hPa
640 hPa
560 hPa
584 gpdm
568 gpdm
552 gpdm
536 gpdm
520 gpdm
504 gpdm
488 gpdm
Extreem zwaar Noodweer Kans op onweer
15% 15% 5% 50% 15%

Dag




Kaart






35°
30°
25°
20°
15°
10°
-5°
-10°
-15°
-20°
-25°
-30°
-35°
120> km/h
105 km/h
90 km/h
75 km/h
60 km/h
50 km/h
40 km/h
30 km/h
20 km/h
10 km/h
0 km/h
Extreem zwaar Noodweer Kans op onweer
15% 15% 5% 50% 15%
>120 mm
115 mm
110 mm
105 mm
100 mm
95 mm
90 mm
85 mm
80 mm
75 mm
70 mm
65 mm
60 mm
55 mm
50 mm
45 mm
45 mm
40 mm
35 mm
30 mm
25 mm
20 mm
15 mm
10 mm
5 mm
0.1 mm
Onweer risico kaarten - De groene en gele kleur geeft de kans op onweer aan binnen 40 km van een punt. Oranje, rood en violet hebben hetzelfde niveau zoals je het ziet op estofex.org waaronder ook de kans op hagel en supercells.

dBZ - dBZ staat voor decibel ten opzichte van Z.

Cape - Convective available potential energy (CAPE), is de totale hoeveelheid energie die een luchtpakketje nodig heeft om zover mogelijk te stijgen in de atmosfeer.

K Index - K-Index wordt berekend door de Vertical Totals (VT) en het verschil tussen de 850 hPa temperatuur en de 700 hPa dauwpuntsdepressie (Tdd 700) bij elkaar op te tellen.

TT Index - Convectie index wordt gebruikt voor het voorspellen van zware buien of onweer.

WRF - The Weather Research and Forecasting (WRF) is een volgende generatie mesoscale numeriek weersvoorspelling systeem ontworpen om zowel de operationele planning als het atmosferisch onderzoek te dienen. WRF is a cooperatie tussen het National Center for Atmospheric Research (NCAR), National Centers for Environmental Prediction (NCEP), Forecast Systems Laboratory (FSL), Air Force Weather Agency (AFWA), Naval Research Laboratory, University of Oklahoma, en de Federal Aviation Administration (FAA). Deze software draait op onze server.

WRFDA - Een meer geavanceerde versie van WRF

Arome - Het 2.5 km Arome model. Verzorgd door het Noors Meteorologisch Instituut.

MET Norway - De proff-default 4km meteorological data is een beste keus selectie van meteorologische modellen gebruikt door met.no die zijn geïnterpoleerd tot een gemeenschappelijke dataset. Verzorgd door het Noorse Meteorologisch Instituut.

SMHI - Het Hirlam model verzorgd door het Zweeds meteorologisch instituut.

FMI - Het Hirlam model verzorgd door het Fins meteorologisch instituut. Dekking alleen Finland.

GFS - Het Global Forecast Systeem (GFS) is een wereldwijd numerieke weersvoorspelling computermodel, gerund door NOAA.

GEM-GDPS - Het GEM-GDPS is a wereldwijd numeriek weersvoorspelling computermodel verzorgd door het Canadees Meteorologisch Centrum.

Credits/Info: Dank aan Stefan Gofferje van sääkeskus.fi voor enkele formules van GrADS. Info: Wikipedia.

Betrouwbaarheid van de verwachting

NB! 2015-03-29: Rebuilding the accuracy-test!

EWNACC
Day 1 Good forecasts

Dag 1 Tmax

Dag 2 Tmax

Geladen verwachtingen TOP 50

Totaal geladen verwachtingen:
Plaats Latitude Longitude Verwachtingen Plaats Latitude Longitude Verwachtingen